[Date Prev][Date Next][Thread Prev][Thread Next] - [Date Index][Thread Index][Author Index]

2 Line ISS Keps 10-16



ISS
1 25544U 98067A   01289.13785483  .00056529  00000-0  77130-3 0  6073
2 25544  51.6398 200.2010 0008091 204.5578 308.7238 15.56899804165950


----
Via the sarex mailing list at AMSAT.ORG courtesy of AMSAT-NA.
To unsubscribe, send "unsubscribe sarex" to Majordomo@amsat.org



AMSAT Top AMSAT Home